Location: Chippewa Lake
(41.0698°N, 81.9010°W)
Time: 02:14:43
(UTC+00:00)

Cosmos 2082 Rocket - Pass Details

Date: 09 May 2021
Orbit: 834 x 853 km, 71.0° (Epoch: 24 June)

Event Time Altitude Azimuth Distance (km) Brightness Sun altitude
Rises 03:26:06 0° 340° (NNW) 3,389 6.6 -25.4°
Reaches altitude 10° 03:28:38 10° 346° (NNW) 2,452 5.5 -25.7°
Maximum altitude 03:34:05 49° 62° (ENE) 1,069 2.6 -26.2°
Enters shadow 03:34:30 48° 76° (ENE) 1,082 2.6 -26.2°
